Simultaneous Nadir Overpasses (SNOs) Predictions

Prediction of SNOs between TERRA and METOP-C Satellite Orbit:

Table of predicted SNOs for the next 14.0 days since TLE Epoch: 8/19/2023
Index Date (TERRA) Time (TERRA) Lat,Lon (TERRA) SZA (TERRA ) Date (METOP-C) Time (METOP-C) Lat,Lon (METOP-C) SZA (METOP-C ) Distance(km) Time Diff (sec)
1 08/19/2023 10:54:34 -80.68,-133.40 110.90 08/19/2023 10:54:10 -80.68,-133.48 110.92 1.59 24
2 08/19/2023 11:43:54 80.75, 35.02 69.24 08/19/2023 11:44:48 80.74, 34.89 69.24 2.44 54
3 08/22/2023 02:15:58 80.66, 176.01 69.95 08/22/2023 02:15:06 80.67, 176.11 69.95 1.84 52
4 08/22/2023 03:05:18 -80.72, -15.68 109.94 08/22/2023 03:05:44 -80.72, -15.73 109.93 0.90 26
5 08/24/2023 18:26:43 80.69, -66.45 70.91 08/24/2023 18:26:42 80.69, -66.53 70.90 1.28 1
6 08/27/2023 09:48:07 -80.66,-117.15 108.22 08/27/2023 09:47:39 -80.65,-117.28 108.25 2.24 28
7 08/27/2023 10:37:27 80.72, 51.23 71.91 08/27/2023 10:38:17 80.72, 51.13 71.92 1.90 50
8 08/30/2023 01:09:30 80.65,-167.63 72.71 08/30/2023 01:08:35 80.65,-167.48 72.71 2.92 55
9 08/30/2023 01:58:50 -80.71, 0.69 107.18 08/30/2023 01:59:13 -80.71, 0.65 107.17 0.82 23
10 09/01/2023 17:20:12 80.68, -49.97 73.74 09/01/2023 17:20:09 80.68, -49.95 73.75 0.53 3



Historial Predications of SNOs between TERRA and METOP-C
